Location: Larkspur
(54.4391°N, 113.7691°W)
Time: 20:43:42
(UTC+00:00)

METEOR M2 - Pass Details

Date: 09 December 2023
Orbit: 819 x 826 km, 98.4° (Epoch: 04 March)

Event Time Altitude Azimuth Distance (km) Brightness Sun altitude
Rises 12:02:07 0° 25° (NNE) 3,373 ? -30.7°
Reaches altitude 10° 12:05:26 10° 47° (NE) 2,432 ? -30.2°
Maximum altitude 12:08:45 16° 85° (E) 2,012 ? -29.7°
Drops below altitude 10° 12:12:03 10° 123° (ESE) 2,419 ? -29.2°
Sets 12:15:19 0° 144° (SE) 3,344 ? -28.8°
